CZ-3B R/B (44077 NORAD) Tracking and Keplerian Element Data

This shows tracking and keplerian element data for the satellite.

Feedback or suggestion? Click here.




ElementValue
Catalog44077
NameCZ-3B R/B
Epoch Orbit47
Epoch Day110.88579916
Epoch Year2019
RAAN56.6677
Inclination27.1736
Eccentricity0.7253428
Argument of Perigee191.5186
Mean Anonmoly132.0351
Mean Motion2.34809318
Decay Rate0.00018244
L11 44077U 19017B 19110.88579916 .00018244 13803-5 11472-2 0 9991
L22 44077 27.1736 56.6677 7253428 191.5186 132.0351 2.34809318 473

Live tracking and technical data element details for CZ-3B R/B (NORAD 44077). CZ-3B R/B can be tracked NOW for your location showing map with azimuth and elevation plus other details from your city location.

Track the satellite on the map from your city or location and see movement details for azimuth, elevation, latitude, longitude, range, height, and movement on the map or in text.







IsCatalogInMostPopularTable: catalog: 44077, numindb: 4
Update: records affected: 1



GetName: 44077 CZ-3B R/B

Hit Count: updated at: Tue, 23 Apr 2019 01:52:19 GMT